Year,Month,Day,Hour,Minute,Value (Times are PST for temperature in C)
2014,09,14,00,00,12.80
2014,09,14,00,01,12.80
2014,09,14,00,02,12.90
2014,09,14,00,03,12.90
2014,09,14,00,04,13.00
2014,09,14,00,05,13.00
2014,09,14,00,06,13.00
2014,09,14,00,07,13.00
2014,09,14,00,08,13.00
2014,09,14,00,09,13.00
2014,09,14,00,10,12.90
2014,09,14,00,11,12.90
2014,09,14,00,12,12.90
2014,09,14,00,13,12.80
2014,09,14,00,14,12.80
2014,09,14,00,15,12.80
2014,09,14,00,16,12.70
2014,09,14,00,17,12.70
2014,09,14,00,18,12.70
2014,09,14,00,19,12.60
2014,09,14,00,20,12.60
2014,09,14,00,21,12.50
2014,09,14,00,22,12.50
2014,09,14,00,23,12.40
2014,09,14,00,24,12.40
2014,09,14,00,25,12.40
2014,09,14,00,26,12.40
2014,09,14,00,27,12.30
2014,09,14,00,28,12.30
2014,09,14,00,29,12.30
2014,09,14,00,30,12.20
2014,09,14,00,31,12.20
2014,09,14,00,32,12.20
2014,09,14,00,33,12.10
2014,09,14,00,34,12.10
2014,09,14,00,35,12.10
2014,09,14,00,36,12.10
2014,09,14,00,37,12.10
2014,09,14,00,38,12.00
2014,09,14,00,39,12.00
2014,09,14,00,40,12.00
2014,09,14,00,41,12.00
2014,09,14,00,42,12.00
2014,09,14,00,43,11.90
2014,09,14,00,44,11.90
2014,09,14,00,45,11.90
2014,09,14,00,46,11.90
2014,09,14,00,47,11.90
2014,09,14,00,48,11.90
2014,09,14,00,49,11.80
2014,09,14,00,50,11.80
2014,09,14,00,51,11.70
2014,09,14,00,52,11.70
2014,09,14,00,53,11.70
2014,09,14,00,54,11.70
2014,09,14,00,55,11.70
2014,09,14,00,56,11.70
2014,09,14,00,57,11.60
2014,09,14,00,58,11.60
2014,09,14,00,59,11.60
2014,09,14,01,00,11.50
2014,09,14,01,01,11.50
2014,09,14,01,02,11.50
2014,09,14,01,03,11.60
2014,09,14,01,04,11.60
2014,09,14,01,05,11.60
2014,09,14,01,06,11.60
2014,09,14,01,07,11.60
2014,09,14,01,08,11.60
2014,09,14,01,09,11.70
2014,09,14,01,10,11.70
2014,09,14,01,11,11.70
2014,09,14,01,12,11.70
2014,09,14,01,13,11.80
2014,09,14,01,14,11.80
2014,09,14,01,15,11.90
2014,09,14,01,16,11.90
2014,09,14,01,17,11.90
2014,09,14,01,18,11.90
2014,09,14,01,19,11.90
2014,09,14,01,20,11.90
2014,09,14,01,21,11.90
2014,09,14,01,22,11.80
2014,09,14,01,23,11.80
2014,09,14,01,24,11.80
2014,09,14,01,25,11.80
2014,09,14,01,26,11.80
2014,09,14,01,27,11.70
2014,09,14,01,28,11.70
2014,09,14,01,29,11.70
2014,09,14,01,30,11.70
2014,09,14,01,31,11.70
2014,09,14,01,32,11.70
2014,09,14,01,33,11.60
2014,09,14,01,34,11.60
2014,09,14,01,35,11.60
2014,09,14,01,36,11.60
2014,09,14,01,37,11.50
2014,09,14,01,38,11.40
2014,09,14,01,39,11.40
2014,09,14,01,40,11.40
2014,09,14,01,41,11.30
2014,09,14,01,42,11.30
2014,09,14,01,43,11.30
2014,09,14,01,44,11.30
2014,09,14,01,45,11.20
2014,09,14,01,46,11.20
2014,09,14,01,47,11.20
2014,09,14,01,48,11.10
2014,09,14,01,49,11.10
2014,09,14,01,50,11.10
2014,09,14,01,51,11.00
2014,09,14,01,52,11.00
2014,09,14,01,53,11.00
2014,09,14,01,54,11.00
2014,09,14,01,55,11.00
2014,09,14,01,56,11.00
2014,09,14,01,57,11.00
2014,09,14,01,58,11.00
2014,09,14,01,59,11.00
2014,09,14,02,00,11.00
2014,09,14,02,01,11.00
2014,09,14,02,02,11.00
2014,09,14,02,03,11.00
2014,09,14,02,04,11.00
2014,09,14,02,05,11.00
2014,09,14,02,06,11.00
2014,09,14,02,07,11.00
2014,09,14,02,08,11.00
2014,09,14,02,09,11.00
2014,09,14,02,10,11.00
2014,09,14,02,11,11.00
2014,09,14,02,12,10.90
2014,09,14,02,13,10.90
2014,09,14,02,14,10.90
2014,09,14,02,15,10.90
2014,09,14,02,16,10.90
2014,09,14,02,17,10.90
2014,09,14,02,18,10.90
2014,09,14,02,19,10.90
2014,09,14,02,20,10.90
2014,09,14,02,21,10.90
2014,09,14,02,22,10.90
2014,09,14,02,23,10.90
2014,09,14,02,24,10.90
2014,09,14,02,25,10.90
2014,09,14,02,26,10.90
2014,09,14,02,27,10.90
2014,09,14,02,28,10.90
2014,09,14,02,29,10.90
2014,09,14,02,30,10.80
2014,09,14,02,31,10.80
2014,09,14,02,32,10.80
2014,09,14,02,33,10.80
2014,09,14,02,34,10.80
2014,09,14,02,35,10.80
2014,09,14,02,36,10.80
2014,09,14,02,37,10.80
2014,09,14,02,38,10.80
2014,09,14,02,39,10.80
2014,09,14,02,40,10.70
2014,09,14,02,41,10.70
2014,09,14,02,42,10.70
2014,09,14,02,43,10.80
2014,09,14,02,44,10.80
2014,09,14,02,45,10.80
2014,09,14,02,46,10.80
2014,09,14,02,47,10.80
2014,09,14,02,48,10.80
2014,09,14,02,49,10.80
2014,09,14,02,50,10.80
2014,09,14,02,51,10.70
2014,09,14,02,52,10.70
2014,09,14,02,53,10.70
2014,09,14,02,54,10.70
2014,09,14,02,55,10.70
2014,09,14,02,56,10.70
2014,09,14,02,57,10.70
2014,09,14,02,58,10.70
2014,09,14,02,59,10.60
2014,09,14,03,00,10.60
2014,09,14,03,01,10.60
2014,09,14,03,02,10.60
2014,09,14,03,03,10.50
2014,09,14,03,04,10.50
2014,09,14,03,05,10.50
2014,09,14,03,06,10.50
2014,09,14,03,07,10.50
2014,09,14,03,08,10.60
2014,09,14,03,09,10.60
2014,09,14,03,10,10.60
2014,09,14,03,11,10.60
2014,09,14,03,12,10.60
2014,09,14,03,13,10.60
2014,09,14,03,14,10.60
2014,09,14,03,15,10.60
2014,09,14,03,16,10.60
2014,09,14,03,17,10.60
2014,09,14,03,18,10.60
2014,09,14,03,19,10.60
2014,09,14,03,20,10.60
2014,09,14,03,21,10.60
2014,09,14,03,22,10.50
2014,09,14,03,23,10.50
2014,09,14,03,24,10.50
2014,09,14,03,25,10.50
2014,09,14,03,26,10.40
2014,09,14,03,27,10.40
2014,09,14,03,28,10.40
2014,09,14,03,29,10.40
2014,09,14,03,30,10.40
2014,09,14,03,31,10.40
2014,09,14,03,32,10.40
2014,09,14,03,33,10.40
2014,09,14,03,34,10.40
2014,09,14,03,35,10.40
2014,09,14,03,36,10.40
2014,09,14,03,37,10.40
2014,09,14,03,38,10.40
2014,09,14,03,39,10.40
2014,09,14,03,40,10.40
2014,09,14,03,41,10.40
2014,09,14,03,42,10.40
2014,09,14,03,43,10.40
2014,09,14,03,44,10.40
2014,09,14,03,45,10.40
2014,09,14,03,46,10.40
2014,09,14,03,47,10.50
2014,09,14,03,48,10.50
2014,09,14,03,49,10.50
2014,09,14,03,50,10.50
2014,09,14,03,51,10.50
2014,09,14,03,52,10.40
2014,09,14,03,53,10.50
2014,09,14,03,54,10.50
2014,09,14,03,55,10.50
2014,09,14,03,56,10.40
2014,09,14,03,57,10.40
2014,09,14,03,58,10.40
2014,09,14,03,59,10.40
2014,09,14,04,00,10.40
2014,09,14,04,01,10.40
2014,09,14,04,02,10.40
2014,09,14,04,03,10.40
2014,09,14,04,04,10.40
2014,09,14,04,05,10.40
2014,09,14,04,06,10.30
2014,09,14,04,07,10.30
2014,09,14,04,08,10.30
2014,09,14,04,09,10.20
2014,09,14,04,10,10.20
2014,09,14,04,11,10.20
2014,09,14,04,12,10.20
2014,09,14,04,13,10.10
2014,09,14,04,14,10.10
2014,09,14,04,15,10.10
2014,09,14,04,16,10.10
2014,09,14,04,17,10.10
2014,09,14,04,18,10.00
2014,09,14,04,19,10.00
2014,09,14,04,20,10.00
2014,09,14,04,21,10.00
2014,09,14,04,22,10.00
2014,09,14,04,23,10.00
2014,09,14,04,24,10.00
2014,09,14,04,25,10.00
2014,09,14,04,26,10.00
2014,09,14,04,27,10.00
2014,09,14,04,28,10.00
2014,09,14,04,29,10.00
2014,09,14,04,30,10.00
2014,09,14,04,31,10.00
2014,09,14,04,32,10.00
2014,09,14,04,33,10.00
2014,09,14,04,34,10.00
2014,09,14,04,35,9.90
2014,09,14,04,36,9.90
2014,09,14,04,37,10.00
2014,09,14,04,38,10.00
2014,09,14,04,39,10.00
2014,09,14,04,40,10.10
2014,09,14,04,41,10.10
2014,09,14,04,42,10.10
2014,09,14,04,43,10.10
2014,09,14,04,44,10.20
2014,09,14,04,45,10.20
2014,09,14,04,46,10.20
2014,09,14,04,47,10.20
2014,09,14,04,48,10.20
2014,09,14,04,49,10.20
2014,09,14,04,50,10.10
2014,09,14,04,51,10.10
2014,09,14,04,52,10.10
2014,09,14,04,53,10.10
2014,09,14,04,54,10.10
2014,09,14,04,55,10.10
2014,09,14,04,56,10.00
2014,09,14,04,57,10.00
2014,09,14,04,58,10.00
2014,09,14,04,59,10.00
2014,09,14,05,00,10.00
2014,09,14,05,01,10.00
2014,09,14,05,02,10.00
2014,09,14,05,03,9.90
2014,09,14,05,04,9.90
2014,09,14,05,05,9.90
2014,09,14,05,06,9.90
2014,09,14,05,07,9.90
2014,09,14,05,08,9.80
2014,09,14,05,09,9.80
2014,09,14,05,10,9.80
2014,09,14,05,11,9.80
2014,09,14,05,12,9.80
2014,09,14,05,13,9.80
2014,09,14,05,14,9.80
2014,09,14,05,15,9.80
2014,09,14,05,16,9.80
2014,09,14,05,17,9.80
2014,09,14,05,18,9.80
2014,09,14,05,19,9.80
2014,09,14,05,20,9.80
2014,09,14,05,21,9.80
2014,09,14,05,22,9.80
2014,09,14,05,23,9.80
2014,09,14,05,24,9.80
2014,09,14,05,25,9.80
2014,09,14,05,26,9.80
2014,09,14,05,27,9.80
2014,09,14,05,28,9.80
2014,09,14,05,29,9.80
2014,09,14,05,30,9.80
2014,09,14,05,31,9.80
2014,09,14,05,32,9.80
2014,09,14,05,33,9.80
2014,09,14,05,34,9.80
2014,09,14,05,35,9.80
2014,09,14,05,36,9.70
2014,09,14,05,37,9.70
2014,09,14,05,38,9.70
2014,09,14,05,39,9.70
2014,09,14,05,40,9.70
2014,09,14,05,41,9.70
2014,09,14,05,42,9.70
2014,09,14,05,43,9.60
2014,09,14,05,44,9.60
2014,09,14,05,45,9.60
2014,09,14,05,46,9.60
2014,09,14,05,47,9.60
2014,09,14,05,48,9.60
2014,09,14,05,49,9.50
2014,09,14,05,50,9.50
2014,09,14,05,51,9.50
2014,09,14,05,52,9.50
2014,09,14,05,53,9.50
2014,09,14,05,54,9.50
2014,09,14,05,55,9.50
2014,09,14,05,56,9.50
2014,09,14,05,57,9.60
2014,09,14,05,58,9.50
2014,09,14,05,59,9.50
2014,09,14,06,00,9.50
2014,09,14,06,01,9.50
2014,09,14,06,02,9.50
2014,09,14,06,03,9.40
2014,09,14,06,04,9.40
2014,09,14,06,05,9.40
2014,09,14,06,06,9.30
2014,09,14,06,07,9.30
2014,09,14,06,08,9.30
2014,09,14,06,09,9.30
2014,09,14,06,10,9.30
2014,09,14,06,11,9.20
2014,09,14,06,12,9.20
2014,09,14,06,13,9.20
2014,09,14,06,14,9.20
2014,09,14,06,15,9.20
2014,09,14,06,16,9.30
2014,09,14,06,17,9.30
2014,09,14,06,18,9.40
2014,09,14,06,19,9.40
2014,09,14,06,20,9.40
2014,09,14,06,21,9.40
2014,09,14,06,22,9.40
2014,09,14,06,23,9.40
2014,09,14,06,24,9.40
2014,09,14,06,25,9.40
2014,09,14,06,26,9.40
2014,09,14,06,27,9.40
2014,09,14,06,28,9.40
2014,09,14,06,29,9.40
2014,09,14,06,30,9.40
2014,09,14,06,31,9.40
2014,09,14,06,32,9.40
2014,09,14,06,33,9.30
2014,09,14,06,34,9.30
2014,09,14,06,35,9.30
2014,09,14,06,36,9.30
2014,09,14,06,37,9.30
2014,09,14,06,38,9.30
2014,09,14,06,39,9.30
2014,09,14,06,40,9.30
2014,09,14,06,41,9.30
2014,09,14,06,42,9.30
2014,09,14,06,43,9.30
2014,09,14,06,44,9.30
2014,09,14,06,45,9.30
2014,09,14,06,46,9.30
2014,09,14,06,47,9.30
2014,09,14,06,48,9.30
2014,09,14,06,49,9.20
2014,09,14,06,50,9.20
2014,09,14,06,51,9.20
2014,09,14,06,52,9.20
2014,09,14,06,53,9.20
2014,09,14,06,54,9.20
2014,09,14,06,55,9.20
2014,09,14,06,56,9.20
2014,09,14,06,57,9.20
2014,09,14,06,58,9.10
2014,09,14,06,59,9.10
2014,09,14,07,00,9.10
2014,09,14,07,01,9.10
2014,09,14,07,02,9.10
2014,09,14,07,03,9.10
2014,09,14,07,04,9.10
2014,09,14,07,05,9.10
2014,09,14,07,06,9.10
2014,09,14,07,07,9.10
2014,09,14,07,08,9.10
2014,09,14,07,09,9.10
2014,09,14,07,10,9.10
2014,09,14,07,11,9.10
2014,09,14,07,12,9.10
2014,09,14,07,13,9.10
2014,09,14,07,14,9.10
2014,09,14,07,15,9.20
2014,09,14,07,16,9.20
2014,09,14,07,17,9.20
2014,09,14,07,18,9.30
2014,09,14,07,19,9.30
2014,09,14,07,20,9.30
2014,09,14,07,21,9.40
2014,09,14,07,22,9.40
2014,09,14,07,23,9.40
2014,09,14,07,24,9.50
2014,09,14,07,25,9.50
2014,09,14,07,26,9.60
2014,09,14,07,27,9.60
2014,09,14,07,28,9.70
2014,09,14,07,29,9.70
2014,09,14,07,30,9.80
2014,09,14,07,31,9.80
2014,09,14,07,32,9.90
2014,09,14,07,33,9.90
2014,09,14,07,34,9.90
2014,09,14,07,35,10.00
2014,09,14,07,36,10.00
2014,09,14,07,37,10.10
2014,09,14,07,38,10.10
2014,09,14,07,39,10.10
2014,09,14,07,40,10.20
2014,09,14,07,41,10.20
2014,09,14,07,42,10.20
2014,09,14,07,43,10.30
2014,09,14,07,44,10.30
2014,09,14,07,45,10.40
2014,09,14,07,46,10.40
2014,09,14,07,47,10.40
2014,09,14,07,48,10.40
2014,09,14,07,49,10.50
2014,09,14,07,50,10.50
2014,09,14,07,51,10.50
2014,09,14,07,52,10.60
2014,09,14,07,53,10.60
2014,09,14,07,54,10.60
2014,09,14,07,55,10.60
2014,09,14,07,56,10.70
2014,09,14,07,57,10.70
2014,09,14,07,58,10.70
2014,09,14,07,59,10.80
2014,09,14,08,00,11.00
2014,09,14,08,01,11.20
2014,09,14,08,02,11.40
2014,09,14,08,03,11.70
2014,09,14,08,04,12.00
2014,09,14,08,05,12.30
2014,09,14,08,06,12.50
2014,09,14,08,07,12.80
2014,09,14,08,08,13.00
2014,09,14,08,09,13.20
2014,09,14,08,10,13.40
2014,09,14,08,11,13.60
2014,09,14,08,12,13.80
2014,09,14,08,13,14.10
2014,09,14,08,14,14.30
2014,09,14,08,15,14.50
2014,09,14,08,16,14.60
2014,09,14,08,17,14.80
2014,09,14,08,18,14.90
2014,09,14,08,19,15.00
2014,09,14,08,20,15.10
2014,09,14,08,21,15.20
2014,09,14,08,22,15.30
2014,09,14,08,23,15.30
2014,09,14,08,24,15.40
2014,09,14,08,25,15.40
2014,09,14,08,26,15.50
2014,09,14,08,27,15.60
2014,09,14,08,28,15.60
2014,09,14,08,29,15.70
2014,09,14,08,30,15.80
2014,09,14,08,31,15.90
2014,09,14,08,32,16.00
2014,09,14,08,33,16.20
2014,09,14,08,34,16.30
2014,09,14,08,35,16.40
2014,09,14,08,36,16.40
2014,09,14,08,37,16.50
2014,09,14,08,38,16.60
2014,09,14,08,39,16.60
2014,09,14,08,40,16.70
2014,09,14,08,41,16.70
2014,09,14,08,42,16.70
2014,09,14,08,43,16.70
2014,09,14,08,44,16.70
2014,09,14,08,45,16.70
2014,09,14,08,46,16.70
2014,09,14,08,47,16.70
2014,09,14,08,48,16.70
2014,09,14,08,49,16.80
2014,09,14,08,50,16.80
2014,09,14,08,51,16.90
2014,09,14,08,52,16.90
2014,09,14,08,53,17.00
2014,09,14,08,54,17.10
2014,09,14,08,55,17.10
2014,09,14,08,56,17.20
2014,09,14,08,57,17.20
2014,09,14,08,58,17.30
2014,09,14,08,59,17.40
2014,09,14,09,00,17.50
2014,09,14,09,01,17.50
2014,09,14,09,02,17.60
2014,09,14,09,03,17.70
2014,09,14,09,04,17.80
2014,09,14,09,05,17.80
2014,09,14,09,06,17.90
2014,09,14,09,07,18.00
2014,09,14,09,08,18.00
2014,09,14,09,09,18.10
2014,09,14,09,10,18.20
2014,09,14,09,11,18.20
2014,09,14,09,12,18.30
2014,09,14,09,13,18.30
2014,09,14,09,14,18.40
2014,09,14,09,15,18.40
2014,09,14,09,16,18.50
2014,09,14,09,17,18.50
2014,09,14,09,18,18.60
2014,09,14,09,19,18.60
2014,09,14,09,20,18.70
2014,09,14,09,21,18.70
2014,09,14,09,22,18.80
2014,09,14,09,23,18.80
2014,09,14,09,24,18.90
2014,09,14,09,25,19.00
2014,09,14,09,26,19.00
2014,09,14,09,27,19.10
2014,09,14,09,28,19.10
2014,09,14,09,29,19.10
2014,09,14,09,30,19.20
2014,09,14,09,31,19.20
2014,09,14,09,32,19.30
2014,09,14,09,33,19.30
2014,09,14,09,34,19.30
2014,09,14,09,35,19.30
2014,09,14,09,36,19.30
2014,09,14,09,37,19.40
2014,09,14,09,38,19.40
2014,09,14,09,39,19.40
2014,09,14,09,40,19.50
2014,09,14,09,41,19.50
2014,09,14,09,42,19.60
2014,09,14,09,43,19.60
2014,09,14,09,44,19.60
2014,09,14,09,45,19.60
2014,09,14,09,46,19.60
2014,09,14,09,47,19.60
2014,09,14,09,48,19.70
2014,09,14,09,49,19.70
2014,09,14,09,50,19.70
2014,09,14,09,51,19.70
2014,09,14,09,52,19.80
2014,09,14,09,53,19.80
2014,09,14,09,54,19.80
2014,09,14,09,55,19.90
2014,09,14,09,56,19.90
2014,09,14,09,57,19.90
2014,09,14,09,58,19.90
2014,09,14,09,59,19.90
2014,09,14,10,00,19.90
2014,09,14,10,01,19.90
2014,09,14,10,02,20.00
2014,09,14,10,03,20.10
2014,09,14,10,04,20.10
2014,09,14,10,05,20.20
2014,09,14,10,06,20.20
2014,09,14,10,07,20.30
2014,09,14,10,08,20.30
2014,09,14,10,09,20.40
2014,09,14,10,10,20.40
2014,09,14,10,11,20.40
2014,09,14,10,12,20.40
2014,09,14,10,13,20.40
2014,09,14,10,14,20.40
2014,09,14,10,15,20.30
2014,09,14,10,16,20.30
2014,09,14,10,17,20.40
2014,09,14,10,18,20.40
2014,09,14,10,19,20.40
2014,09,14,10,20,20.50
2014,09,14,10,21,20.50
2014,09,14,10,22,20.60
2014,09,14,10,23,20.60
2014,09,14,10,24,20.60
2014,09,14,10,25,20.60
2014,09,14,10,26,20.60
2014,09,14,10,27,20.60
2014,09,14,10,28,20.60
2014,09,14,10,29,20.70
2014,09,14,10,30,20.80
2014,09,14,10,31,20.80
2014,09,14,10,32,20.90
2014,09,14,10,33,21.00
2014,09,14,10,34,21.10
2014,09,14,10,35,21.10
2014,09,14,10,36,21.10
2014,09,14,10,37,21.10
2014,09,14,10,38,21.10
2014,09,14,10,39,21.20
2014,09,14,10,40,21.30
2014,09,14,10,41,21.30
2014,09,14,10,42,21.40
2014,09,14,10,43,21.40
2014,09,14,10,44,21.40
2014,09,14,10,45,21.40
2014,09,14,10,46,21.40
2014,09,14,10,47,21.40
2014,09,14,10,48,21.40
2014,09,14,10,49,21.40
2014,09,14,10,50,21.40
2014,09,14,10,51,21.40
2014,09,14,10,52,21.40
2014,09,14,10,53,21.40
2014,09,14,10,54,21.50
2014,09,14,10,55,21.50
2014,09,14,10,56,21.60
2014,09,14,10,57,21.60
2014,09,14,10,58,21.70
2014,09,14,10,59,21.70
2014,09,14,11,00,21.70
2014,09,14,11,01,21.60
2014,09,14,11,02,21.60
2014,09,14,11,03,21.50
2014,09,14,11,04,21.50
2014,09,14,11,05,21.50
2014,09,14,11,06,21.50
2014,09,14,11,07,21.60
2014,09,14,11,08,21.60
2014,09,14,11,09,21.70
2014,09,14,11,10,21.70
2014,09,14,11,11,21.70
2014,09,14,11,12,21.70
2014,09,14,11,13,21.70
2014,09,14,11,14,21.70
2014,09,14,11,15,21.80
2014,09,14,11,16,21.80
2014,09,14,11,17,21.80
2014,09,14,11,18,21.80
2014,09,14,11,19,21.90
2014,09,14,11,20,21.90
2014,09,14,11,21,21.90
2014,09,14,11,22,22.00
2014,09,14,11,23,22.00
2014,09,14,11,24,22.00
2014,09,14,11,25,22.00
2014,09,14,11,26,22.00
2014,09,14,11,27,22.00
2014,09,14,11,28,22.00
2014,09,14,11,29,22.00
2014,09,14,11,30,22.10
2014,09,14,11,31,22.20
2014,09,14,11,32,22.30
2014,09,14,11,33,22.30
2014,09,14,11,34,22.40
2014,09,14,11,35,22.40
2014,09,14,11,36,22.50
2014,09,14,11,37,22.50
2014,09,14,11,38,22.60
2014,09,14,11,39,22.60
2014,09,14,11,40,22.70
2014,09,14,11,41,22.70
2014,09,14,11,42,22.70
2014,09,14,11,43,22.60
2014,09,14,11,44,22.60
2014,09,14,11,45,22.60
2014,09,14,11,46,22.50
2014,09,14,11,47,22.50
2014,09,14,11,48,22.50
2014,09,14,11,49,22.50
2014,09,14,11,50,22.60
2014,09,14,11,51,22.70
2014,09,14,11,52,22.70
2014,09,14,11,53,22.70
2014,09,14,11,54,22.80
2014,09,14,11,55,22.80
2014,09,14,11,56,22.90
2014,09,14,11,57,22.90
2014,09,14,11,58,23.00
2014,09,14,11,59,23.00
2014,09,14,12,00,23.10
2014,09,14,12,01,23.10
2014,09,14,12,02,23.10
2014,09,14,12,03,23.10
2014,09,14,12,04,23.20
2014,09,14,12,05,23.20
2014,09,14,12,06,23.20
2014,09,14,12,07,23.30
2014,09,14,12,08,23.20
2014,09,14,12,09,23.10
2014,09,14,12,10,23.00
2014,09,14,12,11,22.90
2014,09,14,12,12,22.80
2014,09,14,12,13,22.80
2014,09,14,12,14,22.80
2014,09,14,12,15,22.80
2014,09,14,12,16,22.90
2014,09,14,12,17,22.90
2014,09,14,12,18,22.90
2014,09,14,12,19,23.00
2014,09,14,12,20,23.00
2014,09,14,12,21,22.90
2014,09,14,12,22,22.90
2014,09,14,12,23,22.90
2014,09,14,12,24,23.00
2014,09,14,12,25,23.10
2014,09,14,12,26,23.20
2014,09,14,12,27,23.20
2014,09,14,12,28,23.20
2014,09,14,12,29,23.20
2014,09,14,12,30,23.30
2014,09,14,12,31,23.30
2014,09,14,12,32,23.20
2014,09,14,12,33,23.20
2014,09,14,12,34,23.20
2014,09,14,12,35,23.10
2014,09,14,12,36,23.10
2014,09,14,12,37,23.10
2014,09,14,12,38,23.00
2014,09,14,12,39,23.00
2014,09,14,12,40,22.90
2014,09,14,12,41,22.90
2014,09,14,12,42,22.90
2014,09,14,12,43,22.90
2014,09,14,12,44,23.00
2014,09,14,12,45,23.00
2014,09,14,12,46,23.10
2014,09,14,12,47,23.20
2014,09,14,12,48,23.20
2014,09,14,12,49,23.30
2014,09,14,12,50,23.30
2014,09,14,12,51,23.30
2014,09,14,12,52,23.30
2014,09,14,12,53,23.40
2014,09,14,12,54,23.50
2014,09,14,12,55,23.60
2014,09,14,12,56,23.70
2014,09,14,12,57,23.70
2014,09,14,12,58,23.60
2014,09,14,12,59,23.60
2014,09,14,13,00,23.70
2014,09,14,13,01,23.70
2014,09,14,13,02,23.60
2014,09,14,13,03,23.70
2014,09,14,13,04,23.70
2014,09,14,13,05,23.70
2014,09,14,13,06,23.70
2014,09,14,13,07,23.70
2014,09,14,13,08,23.60
2014,09,14,13,09,23.70
2014,09,14,13,10,23.70
2014,09,14,13,11,23.70
2014,09,14,13,12,23.70
2014,09,14,13,13,23.70
2014,09,14,13,14,23.70
2014,09,14,13,15,23.70
2014,09,14,13,16,23.70
2014,09,14,13,17,23.60
2014,09,14,13,18,23.60
2014,09,14,13,19,23.60
2014,09,14,13,20,23.60
2014,09,14,13,21,23.70
2014,09,14,13,22,23.70
2014,09,14,13,23,23.80
2014,09,14,13,24,23.80
2014,09,14,13,25,23.90
2014,09,14,13,26,24.00
2014,09,14,13,27,24.10
2014,09,14,13,28,24.10
2014,09,14,13,29,24.00
2014,09,14,13,30,24.00
2014,09,14,13,31,23.80
2014,09,14,13,32,23.80
2014,09,14,13,33,23.80
2014,09,14,13,34,23.90
2014,09,14,13,35,23.90
2014,09,14,13,36,24.00
2014,09,14,13,37,24.00
2014,09,14,13,38,24.10
2014,09,14,13,39,24.10
2014,09,14,13,40,24.10
2014,09,14,13,41,24.10
2014,09,14,13,42,24.10
2014,09,14,13,43,24.10
2014,09,14,13,44,24.20
2014,09,14,13,45,24.20
2014,09,14,13,46,24.30
2014,09,14,13,47,24.30
2014,09,14,13,48,24.30
2014,09,14,13,49,24.30
2014,09,14,13,50,24.30
2014,09,14,13,51,24.30
2014,09,14,13,52,24.30
2014,09,14,13,53,24.20
2014,09,14,13,54,24.20
2014,09,14,13,55,24.30
2014,09,14,13,56,24.30
2014,09,14,13,57,24.30
2014,09,14,13,58,24.40
2014,09,14,13,59,24.40
2014,09,14,14,00,24.40
2014,09,14,14,01,24.40
2014,09,14,14,02,24.40
2014,09,14,14,03,24.40
2014,09,14,14,04,24.40
2014,09,14,14,05,24.40
2014,09,14,14,06,24.40
2014,09,14,14,07,24.40
2014,09,14,14,08,24.40
2014,09,14,14,09,24.50
2014,09,14,14,10,24.40
2014,09,14,14,11,24.40
2014,09,14,14,12,24.40
2014,09,14,14,13,24.50
2014,09,14,14,14,24.60
2014,09,14,14,15,24.70
2014,09,14,14,16,24.70
2014,09,14,14,17,24.70
2014,09,14,14,18,24.70
2014,09,14,14,19,24.70
2014,09,14,14,20,24.80
2014,09,14,14,21,24.80
2014,09,14,14,22,24.80
2014,09,14,14,23,24.80
2014,09,14,14,24,24.80
2014,09,14,14,25,24.80
2014,09,14,14,26,24.80
2014,09,14,14,27,24.80
2014,09,14,14,28,24.80
2014,09,14,14,29,24.90
2014,09,14,14,30,24.90
2014,09,14,14,31,24.90
2014,09,14,14,32,24.90
2014,09,14,14,33,24.90
2014,09,14,14,34,25.00
2014,09,14,14,35,25.00
2014,09,14,14,36,25.10
2014,09,14,14,37,25.10
2014,09,14,14,38,25.20
2014,09,14,14,39,25.20
2014,09,14,14,40,25.20
2014,09,14,14,41,25.20
2014,09,14,14,42,25.30
2014,09,14,14,43,25.30
2014,09,14,14,44,25.40
2014,09,14,14,45,25.40
2014,09,14,14,46,25.50
2014,09,14,14,47,25.50
2014,09,14,14,48,25.50
2014,09,14,14,49,25.50
2014,09,14,14,50,25.50
2014,09,14,14,51,25.60
2014,09,14,14,52,25.60
2014,09,14,14,53,25.60
2014,09,14,14,54,25.60
2014,09,14,14,55,25.60
2014,09,14,14,56,25.50
2014,09,14,14,57,25.50
2014,09,14,14,58,25.50
2014,09,14,14,59,25.50
2014,09,14,15,00,25.50
2014,09,14,15,01,25.50
2014,09,14,15,02,25.50
2014,09,14,15,03,25.50
2014,09,14,15,04,25.40
2014,09,14,15,05,25.40
2014,09,14,15,06,25.40
2014,09,14,15,07,25.40
2014,09,14,15,08,25.40
2014,09,14,15,09,25.50
2014,09,14,15,10,25.60
2014,09,14,15,11,25.60
2014,09,14,15,12,25.70
2014,09,14,15,13,25.70
2014,09,14,15,14,25.70
2014,09,14,15,15,25.70
2014,09,14,15,16,25.70
2014,09,14,15,17,25.70
2014,09,14,15,18,25.70
2014,09,14,15,19,25.70
2014,09,14,15,20,25.70
2014,09,14,15,21,25.70
2014,09,14,15,22,25.70
2014,09,14,15,23,25.60
2014,09,14,15,24,25.50
2014,09,14,15,25,25.40
2014,09,14,15,26,25.40
2014,09,14,15,27,25.40
2014,09,14,15,28,25.40
2014,09,14,15,29,25.30
2014,09,14,15,30,25.30
2014,09,14,15,31,25.30
2014,09,14,15,32,25.30
2014,09,14,15,33,25.30
2014,09,14,15,34,25.30
2014,09,14,15,35,25.30
2014,09,14,15,36,25.30
2014,09,14,15,37,25.30
2014,09,14,15,38,25.30
2014,09,14,15,39,25.40
2014,09,14,15,40,25.40
2014,09,14,15,41,25.40
2014,09,14,15,42,25.40
2014,09,14,15,43,25.40
2014,09,14,15,44,25.40
2014,09,14,15,45,25.40
2014,09,14,15,46,25.40
2014,09,14,15,47,25.40
2014,09,14,15,48,25.40
2014,09,14,15,49,25.30
2014,09,14,15,50,25.30
2014,09,14,15,51,25.30
2014,09,14,15,52,25.30
2014,09,14,15,53,25.20
2014,09,14,15,54,25.20
2014,09,14,15,55,25.20
2014,09,14,15,56,25.30
2014,09,14,15,57,25.30
2014,09,14,15,58,25.30
2014,09,14,15,59,25.30
2014,09,14,16,00,25.30
2014,09,14,16,01,25.30
2014,09,14,16,02,25.30
2014,09,14,16,03,25.30
2014,09,14,16,04,25.30
2014,09,14,16,05,25.40
2014,09,14,16,06,25.40
2014,09,14,16,07,25.50
2014,09,14,16,08,25.60
2014,09,14,16,09,25.70
2014,09,14,16,10,25.70
2014,09,14,16,11,25.70
2014,09,14,16,12,25.80
2014,09,14,16,13,25.80
2014,09,14,16,14,25.80
2014,09,14,16,15,25.80
2014,09,14,16,16,25.80
2014,09,14,16,17,25.80
2014,09,14,16,18,25.80
2014,09,14,16,19,25.80
2014,09,14,16,20,25.80
2014,09,14,16,21,25.80
2014,09,14,16,22,25.80
2014,09,14,16,23,25.80
2014,09,14,16,24,25.80
2014,09,14,16,25,25.80
2014,09,14,16,26,25.80
2014,09,14,16,27,25.80
2014,09,14,16,28,25.80
2014,09,14,16,29,25.70
2014,09,14,16,30,25.70
2014,09,14,16,31,25.70
2014,09,14,16,32,25.80
2014,09,14,16,33,25.80
2014,09,14,16,34,25.90
2014,09,14,16,35,25.90
2014,09,14,16,36,25.90
2014,09,14,16,37,25.90
2014,09,14,16,38,25.90
2014,09,14,16,39,25.90
2014,09,14,16,40,25.80
2014,09,14,16,41,25.80
2014,09,14,16,42,25.80
2014,09,14,16,43,25.80
2014,09,14,16,44,25.80
2014,09,14,16,45,25.90
2014,09,14,16,46,25.90
2014,09,14,16,47,25.90
2014,09,14,16,48,25.80
2014,09,14,16,49,25.80
2014,09,14,16,50,25.80
2014,09,14,16,51,25.80
2014,09,14,16,52,25.80
2014,09,14,16,53,25.80
2014,09,14,16,54,25.80
2014,09,14,16,55,25.80
2014,09,14,16,56,25.80
2014,09,14,16,57,25.80
2014,09,14,16,58,25.80
2014,09,14,16,59,25.80
2014,09,14,17,00,25.80
2014,09,14,17,01,25.80
2014,09,14,17,02,25.80
2014,09,14,17,03,25.80
2014,09,14,17,04,25.80
2014,09,14,17,05,25.80
2014,09,14,17,06,25.90
2014,09,14,17,07,25.80
2014,09,14,17,08,25.80
2014,09,14,17,09,25.80
2014,09,14,17,10,25.80
2014,09,14,17,11,25.90
2014,09,14,17,12,25.90
2014,09,14,17,13,25.90
2014,09,14,17,14,25.90
2014,09,14,17,15,25.90
2014,09,14,17,16,25.90
2014,09,14,17,17,25.90
2014,09,14,17,18,25.90
2014,09,14,17,19,25.90
2014,09,14,17,20,25.90
2014,09,14,17,21,25.90
2014,09,14,17,22,25.90
2014,09,14,17,23,25.90
2014,09,14,17,24,25.80
2014,09,14,17,25,25.60
2014,09,14,17,26,25.60